Flag for U.S.A. Weather past 2 weeks in Greeley, Colorado, U.S.A.

Now
7 °F

Clear.


Feels Like: 0 °F
Forecast: 0 / 37 °F
Wind: 3 mph from Northeast

Location: Greeley / Weld

Current Time: Mar 5, 2015 at 1:14:34 AM

Latest Report: Mar 5, 2015 at 12:35 AM


Visibility: 10 mi

Pressure: 30.22 "Hg

Humidity: 66%

Dew point: -2 °F

Location of GreeleyLocation

Historic Weather in Greeley — Graph

°F

Greeley temperature yesterday

Maximum temperature yesterday: 25 °F (at 1:55 PM)
Minimum temperature yesterday: 7 °F (at 10:55 PM)
Average temperature yesterday: 16 °F

Past Weeks' High & Low Weather Summary

 TemperatureHumidityPressure
High66 °F (Feb 19, 2:15 PM)86% (Feb 21, 9:55 AM)30.42 "Hg (Feb 21, 9:55 AM)
Low-2 °F (Feb 23, 6:35 AM)15% (Feb 19, 3:35 PM)29.54 "Hg (Mar 2, 11:15 PM)
Average23 °F61%30.04 "Hg
* Reported Feb 17 11:15 PM — Mar 4 11:55 PM, Greeley, Weather by CustomWeather, © 2015

Note: Actual official high and low records may vary slightly from our data, if they occured in-between our weather recording intervals... More about our weather records

Advertising

Greeley weather history for previous 24 hours

 ConditionsComfort  
Time TempWeatherWind HumidityBarometerVisibility
11:55 PM
Wed, Mar 4
7 °FClear.No wind72%30.22 "Hg10 mi
11:35 PM7 °FClear.No wind66%30.22 "Hg10 mi
11:15 PM9 °FClear.No wind66%30.23 "Hg10 mi
10:55 PM7 °FClear.No wind56%30.23 "Hg10 mi
10:35 PM9 °FClear.No wind72%30.23 "Hg10 mi
10:15 PM10 °FClear.No wind67%30.23 "Hg10 mi
9:55 PM10 °FClear.No wind61%30.23 "Hg10 mi
9:35 PM10 °FClear.3 mph61%30.23 "Hg10 mi
9:15 PM10 °FClear.5 mph61%30.22 "Hg10 mi
8:35 PM14 °FClear.7 mph57%30.22 "Hg10 mi
8:15 PM16 °FClear.6 mph53%30.21 "Hg10 mi
7:55 PM16 °FClear.7 mph53%30.21 "Hg10 mi
7:15 PM16 °FClear.7 mph57%30.20 "Hg10 mi
6:55 PM18 °FClear.8 mph49%30.20 "Hg10 mi
6:35 PM18 °FClear.6 mph49%30.19 "Hg10 mi
6:15 PM18 °FClear.7 mph49%30.18 "Hg10 mi
5:55 PM19 °FClear.9 mph49%30.17 "Hg10 mi
5:35 PM19 °FSunny.8 mph49%30.16 "Hg10 mi
5:15 PM21 °FSunny.9 mph45%30.16 "Hg10 mi
4:55 PM21 °FSunny.10 mph45%30.16 "Hg10 mi
4:35 PM23 °FSunny.12 mph42%30.15 "Hg10 mi
4:15 PM23 °FSunny.9 mph42%30.15 "Hg10 mi
3:55 PM23 °FSunny.6 mph46%30.15 "Hg10 mi
3:35 PM25 °FSunny.6 mph46%30.15 "Hg10 mi
3:15 PM23 °FSunny.8 mph46%30.14 "Hg10 mi
2:15 PM25 °FSunny.7 mph42%30.14 "Hg10 mi
1:55 PM25 °FSunny.5 mph46%30.14 "Hg10 mi
1:35 PM23 °FSunny.3 mph46%30.14 "Hg10 mi
1:15 PM21 °FPassing clouds.5 mph45%30.15 "Hg10 mi
12:55 PM19 °FPassing clouds.3 mph42%30.16 "Hg10 mi
12:35 PM19 °FSunny.No wind49%30.16 "Hg10 mi
12:15 PM21 °FSunny.5 mph49%30.17 "Hg10 mi
11:55 AM21 °FSunny.No wind54%30.17 "Hg10 mi
11:35 AM21 °FPassing clouds.5 mph49%30.17 "Hg10 mi
11:15 AM21 °FPassing clouds.5 mph49%30.17 "Hg10 mi
10:55 AM21 °FSunny.7 mph45%30.17 "Hg10 mi
10:35 AM19 °FSunny.8 mph53%30.17 "Hg10 mi
9:55 AM18 °FSunny.7 mph58%30.18 "Hg10 mi
9:35 AM18 °FSunny.5 mph58%30.18 "Hg10 mi
9:15 AM18 °FSunny.6 mph53%30.18 "Hg10 mi
8:55 AM19 °FSunny.5 mph58%30.18 "Hg10 mi
8:35 AM18 °FSunny.3 mph58%30.18 "Hg10 mi
8:15 AM14 °FScattered clouds.7 mph62%30.17 "Hg10 mi
7:55 AM16 °FBroken clouds.3 mph62%30.17 "Hg10 mi
7:35 AM12 °FSunny.No wind67%30.16 "Hg10 mi
7:15 AM12 °FSunny.3 mph67%30.15 "Hg10 mi
6:55 AM12 °FPassing clouds.No wind67%30.15 "Hg9 mi
6:35 AM12 °FOvercast.No wind73%30.13 "Hg1 mi
6:15 AM12 °FPassing clouds.No wind67%30.13 "Hg3 mi
5:55 AM12 °FPassing clouds.No wind67%30.13 "Hg4 mi
5:35 AM12 °FPassing clouds.No wind67%30.12 "Hg4 mi
5:15 AM12 °FOvercast.3 mph67%30.11 "Hg5 mi
4:55 AM12 °FOvercast.5 mph67%30.10 "Hg5 mi
4:35 AM12 °FPassing clouds.7 mph67%30.09 "Hg4 mi
4:15 AM12 °FClear.8 mph73%30.08 "Hg3 mi
3:55 AM12 °FClear.5 mph73%30.07 "Hg3 mi
3:35 AM12 °FPassing clouds.7 mph73%30.06 "Hg3 mi
3:15 AM12 °FOvercast.9 mph73%30.05 "Hg3 mi
2:55 AM14 °FOvercast.7 mph67%30.04 "Hg2 mi
2:35 AM14 °FOvercast.10 mph73%30.04 "Hg2 mi
2:15 AM14 °FPassing clouds.8 mph73%30.04 "Hg2 mi
1:55 AM14 °FClear.7 mph73%30.03 "Hg3 mi
1:35 AM14 °FClear.12 mph67%30.02 "Hg3 mi
1:15 AM14 °FClear.9 mph73%30.01 "Hg3 mi
Weather by CustomWeather, © 2015

See weather overviewHow to use our weather pages